Location: *
(42.0175°N, 9.4056°E)
Time: 23:34:43
(UTC+00:00)

Cosmos 1937 Rocket - Pass Details

Date: 25 August 2019
Orbit: 746 x 781 km, 74.0° (Epoch: 20 September)

Event Time Altitude Azimuth Distance (km) Brightness Sun altitude
Rises 20:06:54 0° 208° (SSW) 3,240 6.7 -20.6°
Reaches altitude 10° 20:09:18 10° 212° (SSW) 2,320 5.9 -20.9°
Maximum altitude 20:14:31 60° 292° (WNW) 892 4.0 -21.7°
Drops below altitude 10° 20:19:47 10° 13° (NNE) 2,343 6.3 -22.5°
Sets 20:22:13 0° 17° (NNE) 3,275 7.1 -22.8°
